• Join FlightAware (Why Join?)
  • Login
  • US Flag 
10:58PM EDT


 

Airport Tracker/Info


-or-


 

Live Flight TrackerFlight Track Log ✈ SWA3497 ✈ 28-Apr-2013 ✈ KBWI - KALB

Flight Track Log - Related Links

Times and Time Zones

All times are in EDT time to prevent confusion due to time zone crossing. See the SWA3497 flight status page for this flight to view local times or setup timezone preferences in your user account.

Time Position Orientation Groundspeed Altitude Reporting Facility
EDT Latitude Longitude Course Direction KTS MPH feet Rate Location/Type
04:18PM 39.1333 -76.6000 131° Southeast 207 238 3,500  Level Potomac TRACON
04:20PM 39.1442 -76.3811 86° East 271 312 10,500 2,760 Climbing Washington Center
04:21PM 39.1469 -76.2553 88° East 301 346 13,000 2,640 Climbing Washington Center
04:22PM 39.1644 -76.1164 81° East 336 387 15,900 2,460 Climbing Washington Center
04:23PM 39.1817 -75.9772 81° East 357 411 17,900 2,040 Climbing Washington Center
04:24PM 39.2172 -75.8433 71° East 387 445 20,000 2,280 Climbing Washington Center
04:25PM 39.3031 -75.7392 43° Northeast 387 445 22,600 2,520 Climbing Washington Center
04:26PM 39.3886 -75.6264 46° Northeast 411 473 25,000 2,760 Climbing Washington Center
04:27PM 39.4719 -75.5189 45° Northeast 417 480 28,200 1,980 Climbing Washington Center
04:28PM 39.5550 -75.4111 45° Northeast 417 480 29,000 300 Climbing Washington Center
04:30PM 39.6847 -75.2408 45° Northeast 410 472 29,000  Level New York Center
04:31PM 39.7622 -75.1269 48° Northeast 418 481 29,000  Level New York Center
04:32PM 39.8414 -75.0128 48° Northeast 418 481 29,000  Level New York Center
04:33PM 39.9247 -74.8961 47° Northeast 428 493 29,000  Level New York Center
04:34PM 40.0014 -74.7842 48° Northeast 423 487 29,000  Level New York Center
04:35PM 40.0892 -74.6589 47° Northeast 429 494 29,000 -180 Level New York Center
04:36PM 40.1633 -74.5544 47° Northeast 429 494 28,700 -720 Descending New York Center
04:37PM 40.2589 -74.4344 44° Northeast 424 488 27,600 -1,080 Descending New York Center
04:38PM 40.3472 -74.3411 39° Northeast 418 481 26,600 -1,020 Descending New York Center
04:39PM 40.4356 -74.2450 40° Northeast 411 473 25,600 -780 Descending New York Center
04:41PM 40.6428 -74.0236 39° Northeast 389 448 24,000 -480 Descending Boston Center
04:42PM 40.7294 -73.9356 38° Northeast 389 448 24,000  Level Boston Center
04:43PM 40.8100 -73.8442 41° Northeast 389 448 24,000  Level Boston Center
04:44PM 40.8903 -73.7442 43° Northeast 389 448 24,000 -120 Level Boston Center
04:45PM 40.9664 -73.6494 43° Northeast 384 442 23,800 -480 Descending Boston Center
04:46PM 41.0606 -73.5961 23° Northeast 373 429 23,100 -420 Descending Boston Center
04:47PM 41.1508 -73.5317 28° Northeast 367 422 23,000 -600 Descending Boston Center
04:48PM 41.2433 -73.4697 27° Northeast 362 417 22,000 -900 Descending Boston Center
04:49PM 41.3186 -73.4433 15° North 356 410 21,200 -1,260 Descending Boston Center
04:50PM 41.4372 -73.4564 355° North 349 402 19,500 -1,980 Descending Boston Center
04:51PM 41.5286 -73.4689 354° North 340 391 17,300 -2,160 Descending Boston Center
04:52PM 41.6328 -73.4789 356° North 348 400 15,200 -1,980 Descending Boston Center
04:53PM 41.7161 -73.4886 355° North 348 400 13,400 -1,740 Descending Boston Center
04:54PM 41.7889 -73.4953 356° North 337 388 11,800 -1,200 Descending Boston Center
04:55PM 41.8972 -73.5056 356° North 326 375 11,000 -480 Descending Boston Center
04:56PM 41.9661 -73.5122 356° North 310 357 11,000  Level Boston Center
04:56PM 41.9911 -73.5156 354° North 314 361 11,000  Level Boston Center
04:57PM 42.0764 -73.5253 355° North 301 346 11,000  Level Boston Center
04:57PM 42.1033 -73.5286 355° North 304 350 11,000  Level Boston Center
04:58PM 42.1575 -73.5464 346° North 301 346 11,000  Level Boston Center
04:59PM 42.2342 -73.5700 347° North 289 333 11,000 -720 Level Boston Center
05:00PM 42.3111 -73.5967 346° North 284 327 9,600 -1,500 Descending Boston Center
05:01PM 42.4025 -73.6239 348° North 277 319 7,700 -1,560 Descending Boston Center
05:02PM 42.4794 -73.6478 347° North 278 320 6,200 -1,500 Descending Boston Center
05:03PM 42.5500 -73.6689 348° North 278 320 4,900 -1,140 Descending Boston Center
05:04PM 42.6228 -73.6928 346° North 275 316 4,000 -840 Descending Boston Center
05:05PM 42.6892 -73.7169 345° North 265 305 3,400 -840 Descending Boston Center
05:06PM 42.7578 -73.7294 352° North 254 292 2,400 -780 Descending Boston Center
05:07PM 42.8161 -73.7336 357° North 227 261 2,000 -420 Descending Boston Center
05:08PM 42.8319 -73.7992 288° West 171 197 1,600 -480 Descending Boston Center
05:09PM 42.7922 -73.8094 191° South 131 151 1,000 -540 Descending Boston Center